カタログに戻る

STARLINK-35800

運用中通信VLEO
NORAD 66291·PAYLOAD·🇺🇸 United States

打ち上げ Oct 31, 2025 から Vandenberg Space Force Base

Loading…

次のパス (今後24時間)

TLE

最新Source: CelesTrak SupGP

元期: Sep 14, 2026, 14:40 UTC

1 66291C 25247AC  26257.61159722 -.00100500  00000+0 -29710-2 0  2574
2 66291  53.1599  29.3231 0001218  83.3228 260.7436 15.34423267    12

AllMySatでSTARLINK-35800をリアルタイム追跡

Download on the App Store